PST,Max TemperatureF,Mean TemperatureF,Min TemperatureF,Max Dew PointF,MeanDew PointF,Min DewpointF,Max Humidity, Mean Humidity, Min Humidity, Max Sea Level PressureIn, Mean Sea Level PressureIn, Min Sea Level PressureIn, Max VisibilityMiles, Mean VisibilityMiles, Min VisibilityMiles, Max Wind SpeedMPH, Mean Wind SpeedMPH, Max Gust SpeedMPH,PrecipitationIn, CloudCover, Events, WindDirDegrees
2013-2-1,66,50,33,47,40,34,100,74,48,30.24,30.21,30.13,9,3,0,6,0,16,0.00,0,Fog,107
2013-2-2,60,51,42,49,44,41,100,84,67,30.29,30.24,30.21,10,4,1,9,1,22,0.00,0,,334
2013-2-3,62,49,36,47,41,36,100,78,56,30.24,30.20,30.12,10,4,0,13,2,16,0.00,1,Fog,335
2013-2-4,65,50,35,47,40,35,100,76,52,30.19,30.12,30.06,10,4,0,6,2,,0.00,1,Fog,114
2013-2-5,58,51,43,46,44,43,100,81,62,30.12,30.08,30.05,10,6,0,16,5,23,0.00,2,Fog,336
2013-2-6,60,52,43,44,43,40,92,73,53,30.19,30.15,30.11,10,7,2,13,7,,0.00,2,,347
2013-2-7,56,49,41,45,41,35,100,76,51,30.19,30.12,30.01,10,5,0,15,3,16,0.01,5,Fog-Rain,107
2013-2-8,53,46,39,40,37,27,100,81,61,30.01,29.96,29.91,10,10,8,17,5,21,0.01,4,Rain,303
2013-2-9,56,44,31,33,30,25,85,60,35,30.11,30.04,29.96,10,10,10,14,5,22,0.00,0,,344
2013-2-10,57,44,30,38,33,30,96,69,41,30.13,30.08,30.03,10,8,2,10,1,23,0.00,0,,343
2013-2-11,60,46,31,37,34,31,100,70,40,30.25,30.17,30.08,10,8,3,9,2,,0.00,0,,107
2013-2-12,62,48,33,38,35,32,100,68,36,30.38,30.32,30.25,10,9,5,7,3,30,0.00,0,,139
2013-2-13,63,49,34,39,37,34,92,66,39,30.35,30.28,30.21,10,8,5,9,1,24,0.00,0,,305
2013-2-14,68,52,35,42,39,35,100,71,42,30.26,30.22,30.17,10,7,3,7,1,23,0.00,0,,139
2013-2-15,70,54,37,44,41,37,100,68,36,30.30,30.26,30.23,10,7,2,8,2,,0.00,0,,158
2013-2-16,68,54,40,46,42,39,93,68,42,30.25,30.14,30.03,10,7,4,7,1,,0.00,0,,292
2013-2-17,66,52,37,46,41,37,96,70,44,30.04,30.00,29.95,10,8,4,15,3,23,0.00,0,,317
2013-2-18,63,49,34,45,38,34,100,74,48,30.01,29.98,29.92,10,7,0,12,3,,0.00,2,Fog,47
2013-2-19,51,45,38,43,38,34,96,79,61,29.96,29.84,29.75,10,9,2,20,6,20,0.30,5,Rain,288
2013-2-20,59,48,37,38,34,28,92,66,40,30.05,29.93,29.83,10,10,10,21,11,29,0.00,0,,317
2013-2-21,59,47,35,41,35,30,92,70,47,30.16,30.10,30.05,10,10,9,18,6,23,0.00,1,,321
2013-2-22,63,48,33,40,36,33,100,68,36,30.26,30.21,30.17,10,9,5,12,2,25,0.00,0,,107
2013-2-23,59,52,44,44,35,23,86,57,28,30.22,30.17,30.12,10,10,8,24,8,31,0.00,2,,333
2013-2-24,61,50,39,33,28,26,59,43,27,30.26,30.20,30.15,10,10,10,20,10,24,0.00,0,,328
2013-2-25,65,50,34,41,37,33,100,66,31,30.27,30.22,30.15,10,10,10,16,5,21,0.00,0,,343
2013-2-26,65,53,40,37,31,23,82,52,21,30.21,30.16,30.12,10,10,10,22,9,28,0.00,0,,316
2013-2-27,69,51,33,42,35,30,96,62,27,30.35,30.29,30.21,10,10,9,7,3,12,0.00,0,,154
2013-2-28,72,55,38,49,43,38,92,65,37,30.44,30.39,30.35,10,9,6,16,3,18,0.00,0,,333